Location: Moscow
(55.7500°N, 37.5830°E)
Time: 22:37:03
(UTC+03:00)

A-11 Canister half - Pass Details

Date: 07 December 2021
Orbit: 1516 x 1684 km, 47.2° (Epoch: 16 January)

Event Time Altitude Azimuth Distance (km) Brightness Sun altitude
Rises 13:20:13 0° 283° (WNW) 4,884 11.7 10.6°
Reaches altitude 10° 13:24:11 10° 270° (W) 3,915 11.4 10.5°
Maximum altitude 13:31:23 23° 224° (SW) 3,027 11.8 10.2°
Drops below altitude 10° 13:38:38 10° 177° (S) 3,941 12.8 9.9°
Sets 13:42:40 0° 164° (SSE) 4,924 12.7 9.7°
